Year,Month,Day,Hour,Minute,Value (Times are PST for temperature in C)
2014,08,09,00,00,16.70
2014,08,09,00,01,16.70
2014,08,09,00,02,16.70
2014,08,09,00,03,16.60
2014,08,09,00,04,16.60
2014,08,09,00,05,16.60
2014,08,09,00,06,16.60
2014,08,09,00,07,16.60
2014,08,09,00,08,16.60
2014,08,09,00,09,16.60
2014,08,09,00,10,16.60
2014,08,09,00,11,16.60
2014,08,09,00,12,16.60
2014,08,09,00,13,16.60
2014,08,09,00,14,16.50
2014,08,09,00,15,16.50
2014,08,09,00,16,16.50
2014,08,09,00,17,16.50
2014,08,09,00,18,16.50
2014,08,09,00,19,16.50
2014,08,09,00,20,16.40
2014,08,09,00,21,16.40
2014,08,09,00,22,16.40
2014,08,09,00,23,16.40
2014,08,09,00,24,16.40
2014,08,09,00,25,16.40
2014,08,09,00,26,16.40
2014,08,09,00,27,16.30
2014,08,09,00,28,16.30
2014,08,09,00,29,16.30
2014,08,09,00,30,16.30
2014,08,09,00,31,16.30
2014,08,09,00,32,16.30
2014,08,09,00,33,16.30
2014,08,09,00,34,16.30
2014,08,09,00,35,16.30
2014,08,09,00,36,16.30
2014,08,09,00,37,16.30
2014,08,09,00,38,16.30
2014,08,09,00,39,16.30
2014,08,09,00,40,16.30
2014,08,09,00,41,16.30
2014,08,09,00,42,16.30
2014,08,09,00,43,16.30
2014,08,09,00,44,16.30
2014,08,09,00,45,16.30
2014,08,09,00,46,16.30
2014,08,09,00,47,16.30
2014,08,09,00,48,16.30
2014,08,09,00,49,16.30
2014,08,09,00,50,16.30
2014,08,09,00,51,16.30
2014,08,09,00,52,16.30
2014,08,09,00,53,16.30
2014,08,09,00,54,16.30
2014,08,09,00,55,16.30
2014,08,09,00,56,16.30
2014,08,09,00,57,16.30
2014,08,09,00,58,16.30
2014,08,09,00,59,16.30
2014,08,09,01,00,16.20
2014,08,09,01,01,16.20
2014,08,09,01,02,16.20
2014,08,09,01,03,16.20
2014,08,09,01,04,16.20
2014,08,09,01,05,16.20
2014,08,09,01,06,16.20
2014,08,09,01,07,16.20
2014,08,09,01,08,16.20
2014,08,09,01,09,16.20
2014,08,09,01,10,16.20
2014,08,09,01,11,16.20
2014,08,09,01,12,16.20
2014,08,09,01,13,16.20
2014,08,09,01,14,16.20
2014,08,09,01,15,16.20
2014,08,09,01,16,16.20
2014,08,09,01,17,16.30
2014,08,09,01,18,16.30
2014,08,09,01,19,16.30
2014,08,09,01,20,16.30
2014,08,09,01,21,16.30
2014,08,09,01,22,16.40
2014,08,09,01,23,16.40
2014,08,09,01,24,16.40
2014,08,09,01,25,16.40
2014,08,09,01,26,16.40
2014,08,09,01,27,16.50
2014,08,09,01,28,16.50
2014,08,09,01,29,16.50
2014,08,09,01,30,16.50
2014,08,09,01,31,16.50
2014,08,09,01,32,16.50
2014,08,09,01,33,16.50
2014,08,09,01,34,16.50
2014,08,09,01,35,16.50
2014,08,09,01,36,16.50
2014,08,09,01,37,16.50
2014,08,09,01,38,16.50
2014,08,09,01,39,16.50
2014,08,09,01,40,16.50
2014,08,09,01,41,16.50
2014,08,09,01,42,16.50
2014,08,09,01,43,16.50
2014,08,09,01,44,16.50
2014,08,09,01,45,16.50
2014,08,09,01,46,16.50
2014,08,09,01,47,16.50
2014,08,09,01,48,16.40
2014,08,09,01,49,16.40
2014,08,09,01,50,16.40
2014,08,09,01,51,16.40
2014,08,09,01,52,16.40
2014,08,09,01,53,16.40
2014,08,09,01,54,16.40
2014,08,09,01,55,16.40
2014,08,09,01,56,16.40
2014,08,09,01,57,16.40
2014,08,09,01,58,16.40
2014,08,09,01,59,16.40
2014,08,09,02,00,16.40
2014,08,09,02,01,16.40
2014,08,09,02,02,16.40
2014,08,09,02,03,16.30
2014,08,09,02,04,16.30
2014,08,09,02,05,16.30
2014,08,09,02,06,16.30
2014,08,09,02,07,16.30
2014,08,09,02,08,16.30
2014,08,09,02,09,16.30
2014,08,09,02,10,16.30
2014,08,09,02,11,16.30
2014,08,09,02,12,16.30
2014,08,09,02,13,16.30
2014,08,09,02,14,16.20
2014,08,09,02,15,16.20
2014,08,09,02,16,16.20
2014,08,09,02,17,16.20
2014,08,09,02,18,16.20
2014,08,09,02,19,16.20
2014,08,09,02,20,16.20
2014,08,09,02,21,16.20
2014,08,09,02,22,16.20
2014,08,09,02,23,16.20
2014,08,09,02,24,16.10
2014,08,09,02,25,16.10
2014,08,09,02,26,16.10
2014,08,09,02,27,16.10
2014,08,09,02,28,16.10
2014,08,09,02,29,16.10
2014,08,09,02,30,16.10
2014,08,09,02,31,16.10
2014,08,09,02,32,16.10
2014,08,09,02,33,16.10
2014,08,09,02,34,16.10
2014,08,09,02,35,16.10
2014,08,09,02,36,16.10
2014,08,09,02,37,16.10
2014,08,09,02,38,16.10
2014,08,09,02,39,16.10
2014,08,09,02,40,16.10
2014,08,09,02,41,16.10
2014,08,09,02,42,16.10
2014,08,09,02,43,16.10
2014,08,09,02,44,16.10
2014,08,09,02,45,16.10
2014,08,09,02,46,16.10
2014,08,09,02,47,16.10
2014,08,09,02,48,16.10
2014,08,09,02,49,16.00
2014,08,09,02,50,16.00
2014,08,09,02,51,16.00
2014,08,09,02,52,16.00
2014,08,09,02,53,16.00
2014,08,09,02,54,16.00
2014,08,09,02,55,16.00
2014,08,09,02,56,16.00
2014,08,09,02,57,16.00
2014,08,09,02,58,16.00
2014,08,09,02,59,16.00
2014,08,09,03,00,16.00
2014,08,09,03,01,16.00
2014,08,09,03,02,16.00
2014,08,09,03,03,16.00
2014,08,09,03,04,16.00
2014,08,09,03,05,16.00
2014,08,09,03,06,16.00
2014,08,09,03,07,16.10
2014,08,09,03,08,16.10
2014,08,09,03,09,16.10
2014,08,09,03,10,16.10
2014,08,09,03,11,16.10
2014,08,09,03,12,16.20
2014,08,09,03,13,16.20
2014,08,09,03,14,16.30
2014,08,09,03,15,16.40
2014,08,09,03,16,16.60
2014,08,09,03,17,16.70
2014,08,09,03,18,16.80
2014,08,09,03,19,16.80
2014,08,09,03,20,16.90
2014,08,09,03,21,16.90
2014,08,09,03,22,17.00
2014,08,09,03,23,17.00
2014,08,09,03,24,17.10
2014,08,09,03,25,17.10
2014,08,09,03,26,17.20
2014,08,09,03,27,17.20
2014,08,09,03,28,17.20
2014,08,09,03,29,17.20
2014,08,09,03,30,17.30
2014,08,09,03,31,17.30
2014,08,09,03,32,17.40
2014,08,09,03,33,17.40
2014,08,09,03,34,17.40
2014,08,09,03,35,17.40
2014,08,09,03,36,17.40
2014,08,09,03,37,17.50
2014,08,09,03,38,17.50
2014,08,09,03,39,17.50
2014,08,09,03,40,17.60
2014,08,09,03,41,17.60
2014,08,09,03,42,17.60
2014,08,09,03,43,17.60
2014,08,09,03,44,17.50
2014,08,09,03,45,17.60
2014,08,09,03,46,17.60
2014,08,09,03,47,17.60
2014,08,09,03,48,17.60
2014,08,09,03,49,17.60
2014,08,09,03,50,17.60
2014,08,09,03,51,17.60
2014,08,09,03,52,17.60
2014,08,09,03,53,17.60
2014,08,09,03,54,17.60
2014,08,09,03,55,17.60
2014,08,09,03,56,17.60
2014,08,09,03,57,17.50
2014,08,09,03,58,17.50
2014,08,09,03,59,17.50
2014,08,09,04,00,17.40
2014,08,09,04,01,17.40
2014,08,09,04,02,17.40
2014,08,09,04,03,17.40
2014,08,09,04,04,17.40
2014,08,09,04,05,17.40
2014,08,09,04,06,17.40
2014,08,09,04,07,17.40
2014,08,09,04,08,17.40
2014,08,09,04,09,17.40
2014,08,09,04,10,17.30
2014,08,09,04,11,17.30
2014,08,09,04,12,17.30
2014,08,09,04,13,17.30
2014,08,09,04,14,17.30
2014,08,09,04,15,17.30
2014,08,09,04,16,17.30
2014,08,09,04,17,17.30
2014,08,09,04,18,17.30
2014,08,09,04,19,17.30
2014,08,09,04,20,17.30
2014,08,09,04,21,17.30
2014,08,09,04,22,17.30
2014,08,09,04,23,17.30
2014,08,09,04,24,17.30
2014,08,09,04,25,17.30
2014,08,09,04,26,17.30
2014,08,09,04,27,17.30
2014,08,09,04,28,17.30
2014,08,09,04,29,17.30
2014,08,09,04,30,17.30
2014,08,09,04,31,17.30
2014,08,09,04,32,17.20
2014,08,09,04,33,17.20
2014,08,09,04,34,17.20
2014,08,09,04,35,17.20
2014,08,09,04,36,17.20
2014,08,09,04,37,17.20
2014,08,09,04,38,17.20
2014,08,09,04,39,17.20
2014,08,09,04,40,17.20
2014,08,09,04,41,17.20
2014,08,09,04,42,17.20
2014,08,09,04,43,17.20
2014,08,09,04,44,17.20
2014,08,09,04,45,17.20
2014,08,09,04,46,17.20
2014,08,09,04,47,17.10
2014,08,09,04,48,17.10
2014,08,09,04,49,17.10
2014,08,09,04,50,17.10
2014,08,09,04,51,17.10
2014,08,09,04,52,17.00
2014,08,09,04,53,17.00
2014,08,09,04,54,17.00
2014,08,09,04,55,16.90
2014,08,09,04,56,16.90
2014,08,09,04,57,16.90
2014,08,09,04,58,16.90
2014,08,09,04,59,16.80
2014,08,09,05,00,16.80
2014,08,09,05,01,16.80
2014,08,09,05,02,16.80
2014,08,09,05,03,16.80
2014,08,09,05,04,16.80
2014,08,09,05,05,16.70
2014,08,09,05,06,16.70
2014,08,09,05,07,16.70
2014,08,09,05,08,16.70
2014,08,09,05,09,16.70
2014,08,09,05,10,16.60
2014,08,09,05,11,16.60
2014,08,09,05,12,16.60
2014,08,09,05,13,16.60
2014,08,09,05,14,16.60
2014,08,09,05,15,16.50
2014,08,09,05,16,16.50
2014,08,09,05,17,16.50
2014,08,09,05,18,16.50
2014,08,09,05,19,16.50
2014,08,09,05,20,16.40
2014,08,09,05,21,16.40
2014,08,09,05,22,16.40
2014,08,09,05,23,16.40
2014,08,09,05,24,16.40
2014,08,09,05,25,16.40
2014,08,09,05,26,16.40
2014,08,09,05,27,16.30
2014,08,09,05,28,16.30
2014,08,09,05,29,16.30
2014,08,09,05,30,16.30
2014,08,09,05,31,16.30
2014,08,09,05,32,16.30
2014,08,09,05,33,16.30
2014,08,09,05,34,16.30
2014,08,09,05,35,16.30
2014,08,09,05,36,16.20
2014,08,09,05,37,16.20
2014,08,09,05,38,16.20
2014,08,09,05,39,16.20
2014,08,09,05,40,16.20
2014,08,09,05,41,16.20
2014,08,09,05,42,16.20
2014,08,09,05,43,16.20
2014,08,09,05,44,16.10
2014,08,09,05,45,16.10
2014,08,09,05,46,16.10
2014,08,09,05,47,16.10
2014,08,09,05,48,16.10
2014,08,09,05,49,16.10
2014,08,09,05,50,16.10
2014,08,09,05,51,16.10
2014,08,09,05,52,16.10
2014,08,09,05,53,16.10
2014,08,09,05,54,16.10
2014,08,09,05,55,16.00
2014,08,09,05,56,16.10
2014,08,09,05,57,16.10
2014,08,09,05,58,16.10
2014,08,09,05,59,16.10
2014,08,09,06,00,16.10
2014,08,09,06,01,16.10
2014,08,09,06,02,16.10
2014,08,09,06,03,16.10
2014,08,09,06,04,16.10
2014,08,09,06,05,16.10
2014,08,09,06,06,16.20
2014,08,09,06,07,16.30
2014,08,09,06,08,16.30
2014,08,09,06,09,16.40
2014,08,09,06,10,16.50
2014,08,09,06,11,16.60
2014,08,09,06,12,16.60
2014,08,09,06,13,16.70
2014,08,09,06,14,16.70
2014,08,09,06,15,16.70
2014,08,09,06,16,16.70
2014,08,09,06,17,16.70
2014,08,09,06,18,16.80
2014,08,09,06,19,16.80
2014,08,09,06,20,16.80
2014,08,09,06,21,16.80
2014,08,09,06,22,16.80
2014,08,09,06,23,16.80
2014,08,09,06,24,16.80
2014,08,09,06,25,16.80
2014,08,09,06,26,16.80
2014,08,09,06,27,16.80
2014,08,09,06,28,16.90
2014,08,09,06,29,16.90
2014,08,09,06,30,16.90
2014,08,09,06,31,16.90
2014,08,09,06,32,16.90
2014,08,09,06,33,16.90
2014,08,09,06,34,16.90
2014,08,09,06,35,16.90
2014,08,09,06,36,16.90
2014,08,09,06,37,16.90
2014,08,09,06,38,16.90
2014,08,09,06,39,16.90
2014,08,09,06,40,16.90
2014,08,09,06,41,16.90
2014,08,09,06,42,16.90
2014,08,09,06,43,16.90
2014,08,09,06,44,16.90
2014,08,09,06,45,16.90
2014,08,09,06,46,16.90
2014,08,09,06,47,16.90
2014,08,09,06,48,16.90
2014,08,09,06,49,16.90
2014,08,09,06,50,16.90
2014,08,09,06,51,16.90
2014,08,09,06,52,16.90
2014,08,09,06,53,16.90
2014,08,09,06,54,16.90
2014,08,09,06,55,16.90
2014,08,09,06,56,17.00
2014,08,09,06,57,17.10
2014,08,09,06,58,17.10
2014,08,09,06,59,17.10
2014,08,09,07,00,17.20
2014,08,09,07,01,17.20
2014,08,09,07,02,17.20
2014,08,09,07,03,17.20
2014,08,09,07,04,17.20
2014,08,09,07,05,17.30
2014,08,09,07,06,17.30
2014,08,09,07,07,17.30
2014,08,09,07,08,17.30
2014,08,09,07,09,17.30
2014,08,09,07,10,17.30
2014,08,09,07,11,17.30
2014,08,09,07,12,17.40
2014,08,09,07,13,17.30
2014,08,09,07,14,17.30
2014,08,09,07,15,17.40
2014,08,09,07,16,17.40
2014,08,09,07,17,17.40
2014,08,09,07,18,17.40
2014,08,09,07,19,17.50
2014,08,09,07,20,17.50
2014,08,09,07,21,17.60
2014,08,09,07,22,17.70
2014,08,09,07,23,17.70
2014,08,09,07,24,17.70
2014,08,09,07,25,17.80
2014,08,09,07,26,17.80
2014,08,09,07,27,17.90
2014,08,09,07,28,17.90
2014,08,09,07,29,17.90
2014,08,09,07,30,18.00
2014,08,09,07,31,18.00
2014,08,09,07,32,18.10
2014,08,09,07,33,18.10
2014,08,09,07,34,18.20
2014,08,09,07,35,18.20
2014,08,09,07,36,18.30
2014,08,09,07,37,18.30
2014,08,09,07,38,18.30
2014,08,09,07,39,18.40
2014,08,09,07,40,18.40
2014,08,09,07,41,18.40
2014,08,09,07,42,18.50
2014,08,09,07,43,18.50
2014,08,09,07,44,18.50
2014,08,09,07,45,18.60
2014,08,09,07,46,18.60
2014,08,09,07,47,18.60
2014,08,09,07,48,18.60
2014,08,09,07,49,18.60
2014,08,09,07,50,18.60
2014,08,09,07,51,18.70
2014,08,09,07,52,18.70
2014,08,09,07,53,18.70
2014,08,09,07,54,18.70
2014,08,09,07,55,18.70
2014,08,09,07,56,18.70
2014,08,09,07,57,18.80
2014,08,09,07,58,18.80
2014,08,09,07,59,18.90
2014,08,09,08,00,18.90
2014,08,09,08,01,18.90
2014,08,09,08,02,18.90
2014,08,09,08,03,18.90
2014,08,09,08,04,19.00
2014,08,09,08,05,19.00
2014,08,09,08,06,19.10
2014,08,09,08,07,19.10
2014,08,09,08,08,19.10
2014,08,09,08,09,19.10
2014,08,09,08,10,19.10
2014,08,09,08,11,19.10
2014,08,09,08,12,19.10
2014,08,09,08,13,19.10
2014,08,09,08,14,19.00
2014,08,09,08,15,19.00
2014,08,09,08,16,19.00
2014,08,09,08,17,19.00
2014,08,09,08,18,19.00
2014,08,09,08,19,19.00
2014,08,09,08,20,19.00
2014,08,09,08,21,19.00
2014,08,09,08,22,19.00
2014,08,09,08,23,19.00
2014,08,09,08,24,19.10
2014,08,09,08,25,19.10
2014,08,09,08,26,19.10
2014,08,09,08,27,19.00
2014,08,09,08,28,19.00
2014,08,09,08,29,19.00
2014,08,09,08,30,19.00
2014,08,09,08,31,19.00
2014,08,09,08,32,19.10
2014,08,09,08,33,19.10
2014,08,09,08,34,19.10
2014,08,09,08,35,19.10
2014,08,09,08,36,19.10
2014,08,09,08,37,19.10
2014,08,09,08,38,19.10
2014,08,09,08,39,19.10
2014,08,09,08,40,19.10
2014,08,09,08,41,19.20
2014,08,09,08,42,19.20
2014,08,09,08,43,19.20
2014,08,09,08,44,19.20
2014,08,09,08,45,19.20
2014,08,09,08,46,19.30
2014,08,09,08,47,19.30
2014,08,09,08,48,19.30
2014,08,09,08,49,19.40
2014,08,09,08,50,19.40
2014,08,09,08,51,19.40
2014,08,09,08,52,19.40
2014,08,09,08,53,19.40
2014,08,09,08,54,19.40
2014,08,09,08,55,19.40
2014,08,09,08,56,19.40
2014,08,09,08,57,19.40
2014,08,09,08,58,19.50
2014,08,09,08,59,19.50
2014,08,09,09,00,19.60
2014,08,09,09,01,19.60
2014,08,09,09,02,19.70
2014,08,09,09,03,19.70
2014,08,09,09,04,19.80
2014,08,09,09,05,19.80
2014,08,09,09,06,19.80
2014,08,09,09,07,19.80
2014,08,09,09,08,19.80
2014,08,09,09,09,19.80
2014,08,09,09,10,19.80
2014,08,09,09,11,19.80
2014,08,09,09,12,19.80
2014,08,09,09,13,19.80
2014,08,09,09,14,19.90
2014,08,09,09,15,19.90
2014,08,09,09,16,20.00
2014,08,09,09,17,20.10
2014,08,09,09,18,20.10
2014,08,09,09,19,20.10
2014,08,09,09,20,20.10
2014,08,09,09,21,20.10
2014,08,09,09,22,20.00
2014,08,09,09,23,20.00
2014,08,09,09,24,20.00
2014,08,09,09,25,19.90
2014,08,09,09,26,20.00
2014,08,09,09,27,20.00
2014,08,09,09,28,20.00
2014,08,09,09,29,20.00
2014,08,09,09,30,20.00
2014,08,09,09,31,20.00
2014,08,09,09,32,19.90
2014,08,09,09,33,19.90
2014,08,09,09,34,19.80
2014,08,09,09,35,19.80
2014,08,09,09,36,19.80
2014,08,09,09,37,19.90
2014,08,09,09,38,19.80
2014,08,09,09,39,19.80
2014,08,09,09,40,19.80
2014,08,09,09,41,19.80
2014,08,09,09,42,19.80
2014,08,09,09,43,19.90
2014,08,09,09,44,19.90
2014,08,09,09,45,19.90
2014,08,09,09,46,19.80
2014,08,09,09,47,19.80
2014,08,09,09,48,19.80
2014,08,09,09,49,19.80
2014,08,09,09,50,19.80
2014,08,09,09,51,19.80
2014,08,09,09,52,19.90
2014,08,09,09,53,19.90
2014,08,09,09,54,19.90
2014,08,09,09,55,19.90
2014,08,09,09,56,19.90
2014,08,09,09,57,20.00
2014,08,09,09,58,20.00
2014,08,09,09,59,20.10
2014,08,09,10,00,20.10
2014,08,09,10,01,20.00
2014,08,09,10,02,20.00
2014,08,09,10,03,19.90
2014,08,09,10,04,19.90
2014,08,09,10,05,19.90
2014,08,09,10,06,19.90
2014,08,09,10,07,19.90
2014,08,09,10,08,20.00
2014,08,09,10,09,20.00
2014,08,09,10,10,20.00
2014,08,09,10,11,20.10
2014,08,09,10,12,20.10
2014,08,09,10,13,20.10
2014,08,09,10,14,20.20
2014,08,09,10,15,20.20
2014,08,09,10,16,20.20
2014,08,09,10,17,20.20
2014,08,09,10,18,20.20
2014,08,09,10,19,20.20
2014,08,09,10,20,20.30
2014,08,09,10,21,20.30
2014,08,09,10,22,20.30
2014,08,09,10,23,20.30
2014,08,09,10,24,20.30
2014,08,09,10,25,20.30
2014,08,09,10,26,20.40
2014,08,09,10,27,20.40
2014,08,09,10,28,20.50
2014,08,09,10,29,20.50
2014,08,09,10,30,20.50
2014,08,09,10,31,20.50
2014,08,09,10,32,20.40
2014,08,09,10,33,20.40
2014,08,09,10,34,20.50
2014,08,09,10,35,20.50
2014,08,09,10,36,20.50
2014,08,09,10,37,20.50
2014,08,09,10,38,20.50
2014,08,09,10,39,20.50
2014,08,09,10,40,20.50
2014,08,09,10,41,20.50
2014,08,09,10,42,20.50
2014,08,09,10,43,20.50
2014,08,09,10,44,20.60
2014,08,09,10,45,20.60
2014,08,09,10,46,20.60
2014,08,09,10,47,20.70
2014,08,09,10,48,20.70
2014,08,09,10,49,20.70
2014,08,09,10,50,20.80
2014,08,09,10,51,20.80
2014,08,09,10,52,20.80
2014,08,09,10,53,20.90
2014,08,09,10,54,20.90
2014,08,09,10,55,20.90
2014,08,09,10,56,21.00
2014,08,09,10,57,21.00
2014,08,09,10,58,21.00
2014,08,09,10,59,21.10
2014,08,09,11,00,21.10
2014,08,09,11,01,21.10
2014,08,09,11,02,21.10
2014,08,09,11,03,21.10
2014,08,09,11,04,21.10
2014,08,09,11,05,21.10
2014,08,09,11,06,21.10
2014,08,09,11,07,21.10
2014,08,09,11,08,21.10
2014,08,09,11,09,21.10
2014,08,09,11,10,21.00
2014,08,09,11,11,21.00
2014,08,09,11,12,21.00
2014,08,09,11,13,20.90
2014,08,09,11,14,20.90
2014,08,09,11,15,20.80
2014,08,09,11,16,20.80
2014,08,09,11,17,20.80
2014,08,09,11,18,20.80
2014,08,09,11,19,20.80
2014,08,09,11,20,20.80
2014,08,09,11,21,20.80
2014,08,09,11,22,20.70
2014,08,09,11,23,20.70
2014,08,09,11,24,20.70
2014,08,09,11,25,20.70
2014,08,09,11,26,20.70
2014,08,09,11,27,20.70
2014,08,09,11,28,20.70
2014,08,09,11,29,20.70
2014,08,09,11,30,20.60
2014,08,09,11,31,20.60
2014,08,09,11,32,20.70
2014,08,09,11,33,20.80
2014,08,09,11,34,20.90
2014,08,09,11,35,20.90
2014,08,09,11,36,20.90
2014,08,09,11,37,21.00
2014,08,09,11,38,21.00
2014,08,09,11,39,21.10
2014,08,09,11,40,21.10
2014,08,09,11,41,21.10
2014,08,09,11,42,21.10
2014,08,09,11,43,21.20
2014,08,09,11,44,21.20
2014,08,09,11,45,21.10
2014,08,09,11,46,21.20
2014,08,09,11,47,21.20
2014,08,09,11,48,21.20
2014,08,09,11,49,21.30
2014,08,09,11,50,21.30
2014,08,09,11,51,21.40
2014,08,09,11,52,21.40
2014,08,09,11,53,21.30
2014,08,09,11,54,21.20
2014,08,09,11,55,21.20
2014,08,09,11,56,21.10
2014,08,09,11,57,21.10
2014,08,09,11,58,21.10
2014,08,09,11,59,21.10
2014,08,09,12,00,21.20
2014,08,09,12,01,21.20
2014,08,09,12,02,21.20
2014,08,09,12,03,21.30
2014,08,09,12,04,21.40
2014,08,09,12,05,21.40
2014,08,09,12,06,21.50
2014,08,09,12,07,21.50
2014,08,09,12,08,21.50
2014,08,09,12,09,21.50
2014,08,09,12,10,21.50
2014,08,09,12,11,21.40
2014,08,09,12,12,21.40
2014,08,09,12,13,21.40
2014,08,09,12,14,21.40
2014,08,09,12,15,21.50
2014,08,09,12,16,21.50
2014,08,09,12,17,21.60
2014,08,09,12,18,21.60
2014,08,09,12,19,21.70
2014,08,09,12,20,21.70
2014,08,09,12,21,21.70
2014,08,09,12,22,21.70
2014,08,09,12,23,21.70
2014,08,09,12,24,21.70
2014,08,09,12,25,21.60
2014,08,09,12,26,21.60
2014,08,09,12,27,21.60
2014,08,09,12,28,21.60
2014,08,09,12,29,21.70
2014,08,09,12,30,21.70
2014,08,09,12,31,21.70
2014,08,09,12,32,21.70
2014,08,09,12,33,21.80
2014,08,09,12,34,21.80
2014,08,09,12,35,21.80
2014,08,09,12,36,21.80
2014,08,09,12,37,21.70
2014,08,09,12,38,21.70
2014,08,09,12,39,21.70
2014,08,09,12,40,21.70
2014,08,09,12,41,21.80
2014,08,09,12,42,21.80
2014,08,09,12,43,21.80
2014,08,09,12,44,21.80
2014,08,09,12,45,21.80
2014,08,09,12,46,21.90
2014,08,09,12,47,21.90
2014,08,09,12,48,21.90
2014,08,09,12,49,21.90
2014,08,09,12,50,21.90
2014,08,09,12,51,21.90
2014,08,09,12,52,22.00
2014,08,09,12,53,22.00
2014,08,09,12,54,22.00
2014,08,09,12,55,22.00
2014,08,09,12,56,22.10
2014,08,09,12,57,22.10
2014,08,09,12,58,22.10
2014,08,09,12,59,22.20
2014,08,09,13,00,22.20
2014,08,09,13,01,22.20
2014,08,09,13,02,22.30
2014,08,09,13,03,22.30
2014,08,09,13,04,22.30
2014,08,09,13,05,22.40
2014,08,09,13,06,22.50
2014,08,09,13,07,22.50
2014,08,09,13,08,22.50
2014,08,09,13,09,22.50
2014,08,09,13,10,22.50
2014,08,09,13,11,22.50
2014,08,09,13,12,22.40
2014,08,09,13,13,22.40
2014,08,09,13,14,22.40
2014,08,09,13,15,22.50
2014,08,09,13,16,22.50
2014,08,09,13,17,22.60
2014,08,09,13,18,22.60
2014,08,09,13,19,22.70
2014,08,09,13,20,22.70
2014,08,09,13,21,22.70
2014,08,09,13,22,22.80
2014,08,09,13,23,22.90
2014,08,09,13,24,22.90
2014,08,09,13,25,22.90
2014,08,09,13,26,23.00
2014,08,09,13,27,23.00
2014,08,09,13,28,23.10
2014,08,09,13,29,23.10
2014,08,09,13,30,23.00
2014,08,09,13,31,23.00
2014,08,09,13,32,23.00
2014,08,09,13,33,23.10
2014,08,09,13,34,23.20
2014,08,09,13,35,23.30
2014,08,09,13,36,23.20
2014,08,09,13,37,23.30
2014,08,09,13,38,23.30
2014,08,09,13,39,23.30
2014,08,09,13,40,23.40
2014,08,09,13,41,23.40
2014,08,09,13,42,23.40
2014,08,09,13,43,23.50
2014,08,09,13,44,23.60
2014,08,09,13,45,23.60
2014,08,09,13,46,23.70
2014,08,09,13,47,23.70
2014,08,09,13,48,23.80
2014,08,09,13,49,23.90
2014,08,09,13,50,24.00
2014,08,09,13,51,24.00
2014,08,09,13,52,24.10
2014,08,09,13,53,24.10
2014,08,09,13,54,24.10
2014,08,09,13,55,24.10
2014,08,09,13,56,24.00
2014,08,09,13,57,23.90
2014,08,09,13,58,23.90
2014,08,09,13,59,23.80
2014,08,09,14,00,23.80
2014,08,09,14,01,23.70
2014,08,09,14,02,23.70
2014,08,09,14,03,23.70
2014,08,09,14,04,23.70
2014,08,09,14,05,23.70
2014,08,09,14,06,23.70
2014,08,09,14,07,23.60
2014,08,09,14,08,23.50
2014,08,09,14,09,23.40
2014,08,09,14,10,23.30
2014,08,09,14,11,23.30
2014,08,09,14,12,23.30
2014,08,09,14,13,23.30
2014,08,09,14,14,23.40
2014,08,09,14,15,23.40
2014,08,09,14,16,23.50
2014,08,09,14,17,23.60
2014,08,09,14,18,23.60
2014,08,09,14,19,23.60
2014,08,09,14,20,23.60
2014,08,09,14,21,23.60
2014,08,09,14,22,23.60
2014,08,09,14,23,23.60
2014,08,09,14,24,23.60
2014,08,09,14,25,23.70
2014,08,09,14,26,23.70
2014,08,09,14,27,23.70
2014,08,09,14,28,23.80
2014,08,09,14,29,23.90
2014,08,09,14,30,24.00
2014,08,09,14,31,24.00
2014,08,09,14,32,24.10
2014,08,09,14,33,24.10
2014,08,09,14,34,24.10
2014,08,09,14,35,24.10
2014,08,09,14,36,24.10
2014,08,09,14,37,24.10
2014,08,09,14,38,24.20
2014,08,09,14,39,24.30
2014,08,09,14,40,24.30
2014,08,09,14,41,24.40
2014,08,09,14,42,24.50
2014,08,09,14,43,24.50
2014,08,09,14,44,24.60
2014,08,09,14,45,24.60
2014,08,09,14,46,24.60
2014,08,09,14,47,24.60
2014,08,09,14,48,24.60
2014,08,09,14,49,24.70
2014,08,09,14,50,24.70
2014,08,09,14,51,24.80
2014,08,09,14,52,24.70
2014,08,09,14,53,24.70
2014,08,09,14,54,24.70
2014,08,09,14,55,24.80
2014,08,09,14,56,24.80
2014,08,09,14,57,24.80
2014,08,09,14,58,24.80
2014,08,09,14,59,24.80
2014,08,09,15,00,24.90
2014,08,09,15,01,24.90
2014,08,09,15,02,24.90
2014,08,09,15,03,24.90
2014,08,09,15,04,24.90
2014,08,09,15,05,24.90
2014,08,09,15,06,24.90
2014,08,09,15,07,25.00
2014,08,09,15,08,25.00
2014,08,09,15,09,25.10
2014,08,09,15,10,25.20
2014,08,09,15,11,25.20
2014,08,09,15,12,25.30
2014,08,09,15,13,25.30
2014,08,09,15,14,25.40
2014,08,09,15,15,25.40
2014,08,09,15,16,25.40
2014,08,09,15,17,25.50
2014,08,09,15,18,25.60
2014,08,09,15,19,25.60
2014,08,09,15,20,25.70
2014,08,09,15,21,25.70
2014,08,09,15,22,25.60
2014,08,09,15,23,25.60
2014,08,09,15,24,25.50
2014,08,09,15,25,25.40
2014,08,09,15,26,25.40
2014,08,09,15,27,25.50
2014,08,09,15,28,25.60
2014,08,09,15,29,25.60
2014,08,09,15,30,25.70
2014,08,09,15,31,25.70
2014,08,09,15,32,25.70
2014,08,09,15,33,25.80
2014,08,09,15,34,25.80
2014,08,09,15,35,25.70
2014,08,09,15,36,25.70
2014,08,09,15,37,25.60
2014,08,09,15,38,25.60
2014,08,09,15,39,25.60
2014,08,09,15,40,25.70
2014,08,09,15,41,25.80
2014,08,09,15,42,25.90
2014,08,09,15,43,25.90
2014,08,09,15,44,26.00
2014,08,09,15,45,26.10
2014,08,09,15,46,26.20
2014,08,09,15,47,26.20
2014,08,09,15,48,26.30
2014,08,09,15,49,26.30
2014,08,09,15,50,26.30
2014,08,09,15,51,26.30
2014,08,09,15,52,26.30
2014,08,09,15,53,26.30
2014,08,09,15,54,26.40
2014,08,09,15,55,26.40
2014,08,09,15,56,26.40
2014,08,09,15,57,26.40
2014,08,09,15,58,26.30
2014,08,09,15,59,26.30
2014,08,09,16,00,26.30
2014,08,09,16,01,26.30
2014,08,09,16,02,26.40
2014,08,09,16,03,26.40
2014,08,09,16,04,26.50
2014,08,09,16,05,26.50
2014,08,09,16,06,26.40
2014,08,09,16,07,26.40
2014,08,09,16,08,26.40
2014,08,09,16,09,26.40
2014,08,09,16,10,26.50
2014,08,09,16,11,26.50
2014,08,09,16,12,26.50
2014,08,09,16,13,26.50
2014,08,09,16,14,26.60
2014,08,09,16,15,26.60
2014,08,09,16,16,26.70
2014,08,09,16,17,26.80
2014,08,09,16,18,26.90
2014,08,09,16,19,26.90
2014,08,09,16,20,26.90
2014,08,09,16,21,26.90
2014,08,09,16,22,26.80
2014,08,09,16,23,26.70
2014,08,09,16,24,26.70
2014,08,09,16,25,26.70
2014,08,09,16,26,26.70
2014,08,09,16,27,26.80
2014,08,09,16,28,26.80
2014,08,09,16,29,26.90
2014,08,09,16,30,26.90
2014,08,09,16,31,26.90
2014,08,09,16,32,27.00
2014,08,09,16,33,27.10
2014,08,09,16,34,27.20
2014,08,09,16,35,27.20
2014,08,09,16,36,27.30
2014,08,09,16,37,27.30
2014,08,09,16,38,27.30
2014,08,09,16,39,27.30
2014,08,09,16,40,27.30
2014,08,09,16,41,27.30
2014,08,09,16,42,27.30
2014,08,09,16,43,27.30
2014,08,09,16,44,27.30
2014,08,09,16,45,27.30
2014,08,09,16,46,27.30
2014,08,09,16,47,27.30
2014,08,09,16,48,27.20
2014,08,09,16,49,27.20
2014,08,09,16,50,27.10
2014,08,09,16,51,27.10
2014,08,09,16,52,27.10
2014,08,09,16,53,27.00
2014,08,09,16,54,27.00
2014,08,09,16,55,27.10
2014,08,09,16,56,27.10
2014,08,09,16,57,27.20
2014,08,09,16,58,27.30
2014,08,09,16,59,27.30
2014,08,09,17,00,27.20
2014,08,09,17,01,27.20
2014,08,09,17,02,27.20
2014,08,09,17,03,27.20
2014,08,09,17,04,27.20
2014,08,09,17,05,27.30
2014,08,09,17,06,27.30
2014,08,09,17,07,27.30
2014,08,09,17,08,27.30
2014,08,09,17,09,27.30
2014,08,09,17,10,27.30
2014,08,09,17,11,27.30
2014,08,09,17,12,27.30
2014,08,09,17,13,27.30
2014,08,09,17,14,27.40
2014,08,09,17,15,27.40
2014,08,09,17,16,27.40
2014,08,09,17,17,27.40
2014,08,09,17,18,27.40
2014,08,09,17,19,27.40